Lexington Weather

Lexington, Massachusetts, USA

24°F
3/3/2021 3:21am 
  • Lexington Conditions: Overcast
  • Temperature: 23.7°F / -4.6°CWarmer 1.6°F than last hour.
  • Dew Point: 11.1°FIncreased 1.6°Fsince last hour.
  • Relative Humidity: 58
  • Wind: Wind from SW SW Calm, 10-min avg: 1 mph, gust: 6 mph
  • Barometer: 29.86 inFalling 0.04  inHg/hr Falling Slowly
  • Visibility: 10 miles
  • Snow Today: 0.0 in
  •   

Regional Weather Roundup
for Boston / Norton, MA

        
000
ASUS41 KBOX 272304
RWRBOX

REGIONAL WEATHER ROUNDUP
NATIONAL WEATHER SERVICE BOSTON/NORTON MA
600 PM EST SAT FEB 27 2021

NOTE:  "FAIR" INDICATES FEW OR NO CLOUDS BELOW 12,000 FEET WITH NO 
SIGNIFICANT WEATHER AND/OR OBSTRUCTIONS TO VISIBILITY.

MAZALL-280000-
EASTERN MASSACHUSETTS
  
CITY           SKY/WX    TMP DP  RH WIND       PRES   REMARKS
BOSTON         CLOUDY    47  46  97 W12       29.95R                  
BEVERLY        CLOUDY    41  40  96 W5        29.93R FOG              
LAWRENCE       CLOUDY    37  37 100 W3        29.96R                  
BEDFORD          N/A     37  36  96 W3        29.95R FOG              
BLUE HILL        N/A     45  45 100 W12       29.92R                  
NORWOOD        CLOUDY    50  46  86 W6        29.95R                  
MARSHFIELD     CLOUDY    54  54 100 SW10G21   29.92R                  
PLYMOUTH       CLOUDY    50  48  93 SW9       29.92S                  
TAUNTON        CLOUDY    50  48  93 SW8       29.94R                  
NEW BEDFORD    CLOUDY    51  49  92 SW8       29.93F FOG              
$$

MAZALL-280000-
CAPE COD AND THE ISLANDS
  
CITY           SKY/WX    TMP DP  RH WIND       PRES   REMARKS
FALMOUTH       FOG       52  52 100 SW20G31   29.93F VSB 1            
HYANNIS        FOG       47  46  97 S10       29.93F VSB 1            
CHATHAM        LGT RAIN  47  45  93 SW8G21    29.97R FOG              
PROVINCETOWN   FOG       44  43  96 S13       29.93F VSB 1            
NANTUCKET      FOG       46  46 100 SW16G24   29.97R VSB 3/4          
MARTHAS VNYRD  FOG       47  46  97 SW13      29.95S VSB 1/2          
$$
 
MAZALL-280000-
CENTRAL AND WESTERN MASSACHUSETTS
  
CITY           SKY/WX    TMP DP  RH WIND       PRES   REMARKS
WORCESTER      MOCLDY    43  40  89 W17G26    29.92R                  
FITCHBURG      MOCLDY    35  35 100 CALM      29.95R                  
ORANGE         FOG       36  36 100 CALM      29.98R VSB 3/4          
SPRINGFIELD    DRZL/FOG  38  38 100 CALM      29.98R VSB 1/2          
WESTFIELD      FOG       36  36 100 CALM      29.99R VSB 1/2          
NORTH ADAMS    CLOUDY    45  36  70 W14       30.01R                  
PITTSFIELD     PTCLDY    42  36  79 NW15G23   29.99R                  
$$
 
RIZALL-280000-
RHODE ISLAND
  
CITY           SKY/WX    TMP DP  RH WIND       PRES   REMARKS
PROVIDENCE     CLOUDY    51  49  92 W9G17     29.95R                  
NEWPORT        FOG       46  46 100 VRB5      29.95S VSB 1/4          
BLOCK ISLAND   CLOUDY    44  44 100 W15       29.98R FOG              
SMITHFIELD     CLOUDY    48  48 100 W10       29.96R                  
WESTERLY       FOG       44  44 100 SW8       29.97R VSB 1            
$$
 
CTZALL-280000-
CONNECTICUT
  
CITY           SKY/WX    TMP DP  RH WIND       PRES   REMARKS
BRADLEY INTL   FOG       38  38 100 CALM      29.99R VSB 1/4          
HARTFORD       FOG       42  40  92 CALM      30.01R VSB 1            
BRIDGEPORT     CLEAR     48  43  82 W9        30.02R                  
DANBURY        PTCLDY    46  39  76 W7        30.03R                  
GROTON         CLOUDY    46  46 100 SW7       29.98R FOG              
NEW HAVEN      MOCLDY    46  44  93 VRB3      30.01R                  
CHESTER        FAIR      46  46 100 W5        29.99R                  
MERIDEN        PTCLDY    47  42  83 VRB6      30.00R                  
WILLIMANTIC    PTCLDY    47  44  90 W3        29.99R                  
OXFORD         PTCLDY    44  44 100 VRB6      30.01R                  
$$

MEZ002-015-021-024-NHZ003-005-008-011-012-014-VTZ005-008-280000-
NORTHERN NEW ENGLAND
  
CITY           SKY/WX    TMP DP  RH WIND       PRES   REMARKS
PORTLAND ME    DRIZZLE   39  39 100 W8        29.92S FOG              
BANGOR ME      LGT RAIN  39  37  92 S7G18     29.90F FOG              
CONCORD NH     CLOUDY    33  32  96 W3        29.95S                  
MANCHESTER NH  CLOUDY    36  33  89 NW3       29.94S                  
NASHUA NH      CLOUDY    35  35 100 W3        29.96R FOG              
PORTSMOUTH NH  CLOUDY    39  39  99 W6        29.92  FOG              
JAFFREY NH     CLOUDY    35  34  96 CALM      29.93R FOG              
KEENE NH       FOG       35  34  96 CALM      29.99R VSB 1/2          
BURLINGTON VT  LGT RAIN  41  36  82 SW8       29.95R                  
MT. WASHINGTON SNOW      25  25 100 W75G82      N/A  VSB 0   WCI   1  
$$

NYZ052-076-280000-
EASTERN NEW YORK
  
CITY           SKY/WX    TMP DP  RH WIND       PRES   REMARKS
ALBANY         MOCLDY    41  38  89 S5        30.02R                  
NEW YORK CITY  MOCLDY    50  42  74 W13       30.04R                  
$$
 
ANZALL-280000-
MARINE OBSERVATIONS
  
STATION/POSITION TIME  TEMP    WIND        PRES    VSBY  WAVE
                       AIR SEA DIR/SP/G                  HT/PER
                 (UTC) (F)     (DEG/KT/KT) (MB)    (MI)  (FT/S)
BOSTON BUOY      2240   44 39  220/  8/ 10 1013.8F
BUZZARDS BAY     2200          220/ 21/ 22 1014.6R
NANTUCKET SOUND  2240      37  210/ 14/ 16   N/A
MASS BAY-STELLWA 2204   42     180/  8/  8 1012.1F  1 7/8  5/ 6
ISLE OF SHOALS   2200   42     190/ 14/ 15 1012.0F
S OF BLOCK IS    2226      40                N/A          10/ 8
$$

......................KEY.........................
  SKY/WX - SKY CONDITION/PRESENT WEATHER
  TMP    - TEMPERATURE IN FAHRENHEIT
  DWPT   - DEWPOINT IN FAHRENHEIT
  RH     - RELATIVE HUMIDITY IN PERCENT
  WIND   - DIRECTION AND SPEED IN MPH
  PRES   - MEAN SEA LEVEL PRESSURE IN INCHES OF HG
  WCI    - WIND CHILL INDEX
  VSB    - VISIBILITY IN MILES
  HX     - HEAT INDEX
  TC     - TEMPERATURE IN CELSIUS
  VRB    - VARIABLE WIND DIRECTION
  N/A    - NOT AVAILABLE
  
      

Other recent Regional Weather Roundups

Wed Mar 3, 3:04am

Wed Mar 3, 2:04am

Wed Mar 3, 1:04am

Wed Mar 3, 12:04am

Tue Mar 2, 11:04pm

Tue Mar 2, 10:05pm

Tue Mar 2, 9:04pm

Tue Mar 2, 8:04pm

Tue Mar 2, 7:04pm

Tue Mar 2, 6:04pm

Tue Mar 2, 5:04pm

Tue Mar 2, 4:05pm

Tue Mar 2, 3:04pm

Tue Mar 2, 2:04pm

Tue Mar 2, 1:04pm

Tue Mar 2, 12:04pm

Tue Mar 2, 11:04am

Tue Mar 2, 10:05am

Tue Mar 2, 9:04am

Tue Mar 2, 8:04am

Tue Mar 2, 7:04am

Tue Mar 2, 6:05am

Tue Mar 2, 5:04am

Tue Mar 2, 4:04am

Tue Mar 2, 3:04am

Tue Mar 2, 2:04am

Tue Mar 2, 1:04am

Tue Mar 2, 12:04am

Mon Mar 1, 11:04pm

Mon Mar 1, 10:04pm

Mon Mar 1, 9:04pm

Mon Mar 1, 8:04pm

Mon Mar 1, 7:04pm

Mon Mar 1, 6:04pm

Mon Mar 1, 5:04pm

Mon Mar 1, 4:05pm

Mon Mar 1, 3:05pm

Mon Mar 1, 2:04pm

Mon Mar 1, 1:04pm

Mon Mar 1, 12:04pm

Mon Mar 1, 11:04am

Mon Mar 1, 10:04am

Mon Mar 1, 9:04am

Mon Mar 1, 8:05am

Mon Mar 1, 7:04am

Mon Mar 1, 6:04am

Mon Mar 1, 5:04am

Mon Mar 1, 4:05am

Mon Mar 1, 3:04am

Mon Mar 1, 2:04am

Mon Mar 1, 1:04am

Mon Mar 1, 12:05am

Sun Feb 28, 11:04pm

Sun Feb 28, 10:04pm

Sun Feb 28, 9:04pm

Sun Feb 28, 8:04pm

Sun Feb 28, 7:04pm

Sun Feb 28, 6:05pm

Sun Feb 28, 5:04pm

Sun Feb 28, 4:05pm

Sun Feb 28, 3:04pm

Sun Feb 28, 2:04pm

Sun Feb 28, 1:04pm

Sun Feb 28, 12:04pm

Sun Feb 28, 11:04am

Sun Feb 28, 10:04am

Sun Feb 28, 9:04am

Sun Feb 28, 8:04am

Sun Feb 28, 7:04am

Sun Feb 28, 6:04am

Sun Feb 28, 5:04am

Sun Feb 28, 4:04am

Sun Feb 28, 3:04am

Sun Feb 28, 2:04am

Sun Feb 28, 1:04am

Sun Feb 28, 12:04am

Sat Feb 27, 11:04pm

Sat Feb 27, 10:04pm

Sat Feb 27, 9:04pm

Sat Feb 27, 8:04pm

Sat Feb 27, 7:04pm

Sat Feb 27, 5:04pm

Sat Feb 27, 4:04pm

Sat Feb 27, 3:05pm

Sat Feb 27, 2:05pm

Sat Feb 27, 1:04pm

Sat Feb 27, 12:04pm

Sat Feb 27, 11:04am

Sat Feb 27, 10:04am

Sat Feb 27, 9:05am

Sat Feb 27, 8:04am

Sat Feb 27, 7:04am

Sat Feb 27, 6:04am

Sat Feb 27, 5:04am

Sat Feb 27, 4:04am

Sat Feb 27, 3:04am

Sat Feb 27, 2:04am

Sat Feb 27, 1:04am

Sat Feb 27, 12:04am

Fri Feb 26, 11:04pm

Fri Feb 26, 10:04pm

Fri Feb 26, 9:04pm

Fri Feb 26, 8:04pm

Fri Feb 26, 7:04pm

Fri Feb 26, 6:04pm

Fri Feb 26, 5:04pm

Fri Feb 26, 4:04pm

Fri Feb 26, 3:04pm

Fri Feb 26, 2:04pm

Fri Feb 26, 1:04pm

Fri Feb 26, 12:04pm

Fri Feb 26, 11:04am

Fri Feb 26, 10:04am

Fri Feb 26, 9:04am

Fri Feb 26, 8:04am

Fri Feb 26, 7:04am

Fri Feb 26, 6:04am

Fri Feb 26, 5:04am

Fri Feb 26, 4:04am

Fri Feb 26, 3:04am

Fri Feb 26, 2:04am

Fri Feb 26, 1:04am

Fri Feb 26, 12:04am

Thu Feb 25, 11:04pm

Thu Feb 25, 10:04pm

Thu Feb 25, 9:04pm

Thu Feb 25, 8:05pm

Thu Feb 25, 7:05pm

Thu Feb 25, 6:04pm

Thu Feb 25, 5:04pm

Thu Feb 25, 4:05pm

Thu Feb 25, 3:05pm

Thu Feb 25, 2:04pm

Thu Feb 25, 1:04pm

Thu Feb 25, 12:05pm

Thu Feb 25, 11:04am

Thu Feb 25, 10:04am

Thu Feb 25, 9:04am

Thu Feb 25, 8:04am

Thu Feb 25, 7:04am

Thu Feb 25, 6:04am

Thu Feb 25, 5:04am

Thu Feb 25, 4:04am

Thu Feb 25, 3:04am

Thu Feb 25, 2:04am

Thu Feb 25, 1:04am

Thu Feb 25, 12:04am

Wed Feb 24, 11:04pm

Wed Feb 24, 10:05pm

Wed Feb 24, 9:04pm

Wed Feb 24, 8:04pm

Wed Feb 24, 7:04pm

Wed Feb 24, 6:04pm

Wed Feb 24, 5:04pm

Wed Feb 24, 4:04pm

Wed Feb 24, 3:04pm

Wed Feb 24, 2:05pm

Wed Feb 24, 1:05pm

Wed Feb 24, 12:05pm

Wed Feb 24, 11:04am

Wed Feb 24, 10:04am

Wed Feb 24, 9:04am

Wed Feb 24, 8:04am

Wed Feb 24, 7:04am

Wed Feb 24, 6:04am

Wed Feb 24, 5:04am

Wed Feb 24, 4:04am

Meta data:

ID: 2b574b39-af9c-4c30-83ff-a7e98aefac8f
Link: https://api.weather.gov/products/2b574b39-af9c-4c30-83ff-a7e98aefac8f